EUTELSAT 10B

Last updated on Wed Oct 29 2025 00:02:51 GMT+0000 (Coordinated Universal Time)

1 54259U 22157A 25300.68917646 .00000079 00000+0 00000+0 0 9993 2 54259 0.0579 89.6304 0001606 40.3081 164.5024 1.00269884 10693
UTC large
Height (km)
Speed (km/s)
/
Latitude / Longitude
Inclination (degrees)
Orbital Period (minutes)
Azimuth
Elevation
Range (km)
Doppler Factor

Next 0 passes for location: London (51.5072 / 0.1276)

Sorry there are no passes over London.